Regional Weather Roundup
Issued by NWS Sioux Falls, SD

Home | Current Version | Previous Version | Text Only | Print | Product List | Glossary Off
Versions: 1 2 3 4 5 6 7 8 9 10 11 12 13 14 15 16 17 18 19 20 21 22 23 24 25 26 27 28 29 30 31 32 33 34 35 36 37 38 39 40 41 42 43 44 45 46 47 48 49 50

000
ASUS43 KFSD 280502
RWRFSD

WEATHER ROUNDUP FOR SE SOUTH DAKOTA/SW MINNESOTA/NW IOWA
NATIONAL WEATHER SERVICE SIOUX FALLS SD
1100 PM CST SAT DEC 27 2014

NOTE: "FAIR" INDICATES FEW OR NO CLOUDS BELOW 12,000 FEET WITH NO
SIGNIFICANT WEATHER AND OR OBSTRUCTIONS TO VISIBILITY.


SDZ038>040-050-052>070-280600-
SOUTHEAST SOUTH DAKOTA

CITY           SKY/WX    TMP DP  RH WIND       PRES   REMARKS
CHAMBERLAIN    NOT AVBL
HURON          CLEAR     12   8  84 S6        30.08S WCI   3
MADISON        FAIR      10  10 100 W10       30.07F WCI  -3
MITCHELL       PTCLDY     8   5  87 S3        30.11S
SIOUX FALLS    PTCLDY     9   6  88 S3        30.12S
WINNER         FAIR      20   9  62 SW9       30.08S WCI   9
YANKTON        PTCLDY    10   9  92 CALM      30.15F
$$

MNZ071-072-080-081-089-090-097-098-280600-
SOUTHWEST MINNESOTA

CITY           SKY/WX    TMP DP  RH WIND       PRES   REMARKS
FAIRMONT       CLEAR     12   7  79 W10       30.12F WCI  -1
JACKSON        CLEAR     14   9  79 SW10      30.12S WCI   1
LUVERNE        PTCLDY     3   0  85 CALM      30.14S FOG
MARSHALL       CLEAR     14   7  73 W12       30.09R WCI   0
MONTEVIDEO     CLOUDY    16  14  93 W7        30.10F WCI   6
PIPESTONE      FAIR       1   0  92 W3        30.09S FOG
REDWOOD FALLS  CLEAR     11   6  81 SW7       30.11F WCI   0
TRACY          CLEAR     13   9  85 SW14      30.09F WCI  -2
WINDOM         CLEAR      9   7  92 SW6       30.11F WCI  -1
WORTHINGTON    CLEAR      9 N/A N/A SW7       30.11F WCI  -3
$$

IAZ001>003-012>014-020>022-031-032-NEZ013-014-SDZ071-280600-
NORTHWEST IOWA

CITY           SKY/WX    TMP DP  RH WIND       PRES   REMARKS
CHEROKEE       CLEAR      6   5  97 CALM      30.18S
DENISON        FAIR      14  12  92 CALM      30.18S
ESTHERVILLE    CLEAR     10   7  87 SW10      30.13F WCI  -4
LE MARS        CLEAR      7   5  92 CALM      30.18F
ORANGE CITY    CLEAR     10   7  85 CALM      30.14F
SIOUX CITY     CLEAR      7   4  87 E7        30.20R WCI  -5
SPENCER        CLEAR      6   2  83 SW6       30.15F WCI  -4
$$

ABBREVIATIONS USED IN REMARKS
   TC - TEMPERATURE IN CELSIUS
  WCI - WIND CHILL INDEX
   HX - HEAT INDEX
  VSB - VISIBILITY




USA.gov is the U.S. government's official web portal to all federal, state and local government web resources and services.